| time (UTC) | temp F | wind direction | speed MPH | gust MPH | rain 1hr in | rain 24hr in | rain mn in | humidity % | barometer mb |
| 20260507094013 | 32 | 81 | 10.0 | 13.0 | 0.00 | 0.18 | 0.00 | 64 | 1022.4 |
| 20260507093518 | 32 | 83 | 9.0 | 12.0 | 0.00 | 0.18 | 0.00 | 65 | 1022.3 |
| 20260507093031 | 32 | 86 | 9.0 | 14.0 | 0.00 | 0.18 | 0.00 | 65 | 1022.3 |
| 20260507092513 | 32 | 94 | 10.0 | 14.0 | 0.00 | 0.18 | 0.00 | 65 | 1022.3 |
| 20260507092014 | 32 | 86 | 10.0 | 14.0 | 0.00 | 0.18 | 0.00 | 66 | 1022.3 |
| 20260507091531 | 31 | 88 | 9.0 | 12.0 | 0.00 | 0.18 | 0.00 | 67 | 1022.3 |
| 20260507091014 | 31 | 95 | 9.0 | 14.0 | 0.00 | 0.18 | 0.00 | 67 | 1022.2 |
| 20260507090513 | 32 | 117 | 9.0 | 14.0 | 0.00 | 0.18 | 0.00 | 66 | 1022.4 |
| 20260507090032 | 32 | 91 | 9.0 | 12.0 | 0.00 | 0.18 | 0.00 | 67 | 1022.3 |
| 20260507085514 | 32 | 105 | 7.0 | 11.0 | 0.00 | 0.18 | 0.00 | 67 | 1022.2 |
| 20260507085014 | 32 | 101 | 8.0 | 11.0 | 0.00 | 0.18 | 0.00 | 67 | 1022.3 |
| 20260507084532 | 31 | 103 | 8.0 | 10.0 | 0.00 | 0.18 | 0.00 | 68 | 1022.4 |
| 20260507084012 | 31 | 95 | 8.0 | 10.0 | 0.00 | 0.18 | 0.00 | 70 | 1022.1 |
| 20260507083513 | 30 | 94 | 5.0 | 10.0 | 0.00 | 0.18 | 0.00 | 71 | 1022.3 |
| 20260507083034 | 30 | 128 | 4.0 | 11.0 | 0.00 | 0.18 | 0.00 | 70 | 1022.5 |
| 20260507082517 | 30 | 91 | 8.0 | 12.0 | 0.00 | 0.18 | 0.00 | 71 | 1022.6 |
| 20260507082016 | 30 | 94 | 9.0 | 12.0 | 0.00 | 0.18 | 0.00 | 72 | 1022.5 |
| 20260507081542 | 30 | 84 | 8.0 | 12.0 | 0.00 | 0.18 | 0.00 | 72 | 1022.4 |
| 20260507081013 | 30 | 89 | 8.0 | 12.0 | 0.00 | 0.18 | 0.00 | 72 | 1022.5 |
| 20260507080515 | 30 | 85 | 8.0 | 13.0 | 0.00 | 0.18 | 0.00 | 71 | 1022.7 |
| 20260507080037 | 31 | 90 | 8.0 | 13.0 | 0.00 | 0.18 | 0.00 | 68 | 1022.6 |
| 20260507075513 | 31 | 92 | 11.0 | 13.0 | 0.00 | 0.18 | 0.00 | 68 | 1022.7 |
| 20260507075014 | 31 | 82 | 9.0 | 13.0 | 0.00 | 0.18 | 0.00 | 68 | 1022.7 |
| 20260507074533 | 31 | 98 | 9.0 | 13.0 | 0.00 | 0.18 | 0.00 | 68 | 1022.7 |
| 20260507074013 | 32 | 97 | 10.0 | 13.0 | 0.00 | 0.18 | 0.00 | 67 | 1022.9 |
| 20260507073514 | 32 | 105 | 8.0 | 11.0 | 0.00 | 0.18 | 0.00 | 65 | 1022.9 |
| 20260507073031 | 33 | 86 | 7.0 | 11.0 | 0.00 | 0.18 | 0.00 | 64 | 1022.8 |
| 20260507072513 | 32 | 86 | 8.0 | 11.0 | 0.00 | 0.18 | 0.00 | 65 | 1022.8 |
| 20260507072014 | 32 | 79 | 9.0 | 13.0 | 0.00 | 0.18 | 0.00 | 65 | 1022.7 |
| 20260507071535 | 32 | 86 | 8.0 | 13.0 | 0.00 | 0.18 | 0.00 | 66 | 1022.7 |
| 20260507071013 | 32 | 79 | 10.0 | 13.0 | 0.00 | 0.18 | 0.00 | 65 | 1022.5 |
| 20260507070511 | 32 | 76 | 8.0 | 11.0 | 0.00 | 0.18 | 0.00 | 66 | 1022.5 |
| 20260507070033 | 31 | 86 | 8.0 | 11.0 | 0.00 | 0.18 | 0.00 | 67 | 1022.5 |
| 20260507065513 | 32 | 91 | 8.0 | 12.0 | 0.00 | 0.18 | 0.00 | 66 | 1022.6 |
| 20260507065013 | 32 | 96 | 8.0 | 12.0 | 0.00 | 0.18 | 0.00 | 65 | 1022.8 |
| 20260507064541 | 32 | 86 | 9.0 | 12.0 | 0.00 | 0.18 | 0.00 | 64 | 1022.8 |
| 20260507064015 | 32 | 86 | 10.0 | 12.0 | 0.00 | 0.18 | 0.00 | 64 | 1022.7 |
| 20260507063513 | 32 | 76 | 9.0 | 12.0 | 0.00 | 0.18 | 0.00 | 65 | 1022.6 |
| 20260507063033 | 32 | 84 | 9.0 | 13.0 | 0.00 | 0.18 | 0.00 | 65 | 1022.6 |
| 20260507062513 | 32 | 84 | 9.0 | 13.0 | 0.00 | 0.18 | 0.00 | 64 | 1022.5 |
| 20260507062016 | 32 | 70 | 9.0 | 11.0 | 0.00 | 0.18 | 0.00 | 65 | 1022.6 |
| 20260507061538 | 32 | 89 | 8.0 | 11.0 | 0.00 | 0.18 | 0.00 | 65 | 1022.7 |
| 20260507061013 | 31 | 89 | 7.0 | 11.0 | 0.00 | 0.18 | 0.00 | 67 | 1022.8 |
| 20260507060513 | 31 | 98 | 7.0 | 11.0 | 0.00 | 0.18 | 0.00 | 67 | 1022.8 |
| 20260507060031 | 32 | 110 | 8.0 | 11.0 | 0.00 | 0.18 | 0.00 | 66 | 1022.5 |
| 20260507055513 | 32 | 87 | 8.0 | 11.0 | 0.00 | 0.18 | 0.18 | 66 | 1022.5 |
| 20260507055015 | 32 | 98 | 8.0 | 11.0 | 0.00 | 0.18 | 0.18 | 66 | 1022.4 |
| 20260507054535 | 32 | 82 | 7.0 | 10.0 | 0.00 | 0.18 | 0.18 | 65 | 1022.4 |
| 20260507054013 | 32 | 111 | 8.0 | 14.0 | 0.00 | 0.18 | 0.18 | 66 | 1022.3 |
| 20260507053514 | 33 | 98 | 9.0 | 14.0 | 0.00 | 0.18 | 0.18 | 64 | 1022.5 |
| 20260507053035 | 32 | 98 | 10.0 | 14.0 | 0.00 | 0.18 | 0.18 | 66 | 1022.4 |
| 20260507052513 | 32 | 98 | 9.0 | 13.0 | 0.00 | 0.18 | 0.18 | 66 | 1022.4 |
| 20260507052015 | 32 | 96 | 9.0 | 12.0 | 0.00 | 0.18 | 0.18 | 65 | 1022.5 |
| 20260507051532 | 32 | 98 | 9.0 | 12.0 | 0.00 | 0.18 | 0.18 | 65 | 1022.5 |
| 20260507051014 | 32 | 105 | 8.0 | 11.0 | 0.00 | 0.18 | 0.18 | 66 | 1022.5 |
| 20260507050515 | 32 | 113 | 8.0 | 11.0 | 0.00 | 0.18 | 0.18 | 66 | 1022.6 |
| 20260507050035 | 31 | 97 | 6.0 | 8.0 | 0.00 | 0.18 | 0.18 | 67 | 1022.5 |
| 20260507045514 | 31 | 93 | 6.0 | 8.0 | 0.00 | 0.18 | 0.18 | 66 | 1022.5 |
| 20260507045013 | 31 | 103 | 5.0 | 8.0 | 0.00 | 0.18 | 0.18 | 66 | 1022.5 |
| 20260507044533 | 32 | 95 | 4.0 | 6.0 | 0.00 | 0.18 | 0.18 | 64 | 1022.6 |
| 20260507044013 | 32 | 111 | 4.0 | 6.0 | 0.00 | 0.18 | 0.18 | 62 | 1022.5 |
| 20260507043515 | 33 | 132 | 3.0 | 6.0 | 0.00 | 0.18 | 0.18 | 60 | 1022.5 |
| 20260507043033 | 33 | 113 | 3.0 | 6.0 | 0.00 | 0.18 | 0.18 | 59 | 1022.5 |
| 20260507042514 | 34 | 94 | 4.0 | 6.0 | 0.00 | 0.18 | 0.18 | 58 | 1022.3 |
| 20260507042015 | 34 | 84 | 5.0 | 6.0 | 0.00 | 0.18 | 0.18 | 56 | 1022.3 |
| 20260507041541 | 34 | 86 | 5.0 | 8.0 | 0.00 | 0.18 | 0.18 | 57 | 1022.1 |
| 20260507041013 | 35 | 94 | 5.0 | 8.0 | 0.00 | 0.18 | 0.18 | 56 | 1022.1 |
| 20260507040513 | 35 | 86 | 5.0 | 8.0 | 0.00 | 0.18 | 0.18 | 55 | 1022.0 |
| 20260507040033 | 34 | 100 | 3.0 | 6.0 | 0.00 | 0.18 | 0.18 | 57 | 1021.9 |
| 20260507035512 | 38 | 101 | 3.0 | 7.0 | 0.00 | 0.18 | 0.18 | 50 | 1021.9 |
| 20260507035013 | 39 | 49 | 5.0 | 7.0 | 0.00 | 0.18 | 0.18 | 44 | 1021.9 |
| 20260507034540 | 39 | 32 | 6.0 | 7.0 | 0.00 | 0.18 | 0.18 | 44 | 1022.0 |
| 20260507034012 | 39 | 42 | 5.0 | 7.0 | 0.00 | 0.18 | 0.18 | 44 | 1021.9 |
| 20260507033516 | 39 | 30 | 5.0 | 7.0 | 0.00 | 0.18 | 0.18 | 45 | 1021.8 |
| 20260507033035 | 39 | 38 | 5.0 | 7.0 | 0.00 | 0.18 | 0.18 | 44 | 1021.6 |
| 20260507032511 | 39 | 49 | 5.0 | 7.0 | 0.00 | 0.18 | 0.18 | 44 | 1021.6 |
| 20260507032015 | 39 | 36 | 5.0 | 8.0 | 0.00 | 0.18 | 0.18 | 44 | 1021.4 |
| 20260507031534 | 39 | 49 | 5.0 | 8.0 | 0.00 | 0.18 | 0.18 | 44 | 1021.1 |
| 20260507031013 | 39 | 40 | 6.0 | 8.0 | 0.00 | 0.18 | 0.18 | 44 | 1020.9 |
| 20260507030515 | 39 | 47 | 6.0 | 8.0 | 0.00 | 0.18 | 0.18 | 45 | 1020.8 |
| 20260507030030 | 39 | 46 | 6.0 | 7.0 | 0.00 | 0.18 | 0.18 | 44 | 1020.7 |
| 20260507025513 | 39 | 46 | 6.0 | 7.0 | 0.00 | 0.18 | 0.18 | 45 | 1020.7 |
| 20260507025015 | 39 | 54 | 5.0 | 8.0 | 0.00 | 0.18 | 0.18 | 45 | 1020.6 |
| 20260507024533 | 39 | 44 | 6.0 | 8.0 | 0.00 | 0.18 | 0.18 | 45 | 1020.6 |
| 20260507024012 | 40 | 39 | 6.0 | 8.0 | 0.00 | 0.18 | 0.18 | 43 | 1020.5 |
| 20260507023513 | 41 | 46 | 6.0 | 8.0 | 0.00 | 0.18 | 0.18 | 42 | 1020.4 |
| 20260507023030 | 41 | 53 | 5.0 | 8.0 | 0.00 | 0.18 | 0.18 | 40 | 1020.4 |
| 20260507022516 | 41 | 37 | 5.0 | 7.0 | 0.00 | 0.18 | 0.18 | 40 | 1020.4 |
| 20260507022012 | 42 | 37 | 5.0 | 7.0 | 0.00 | 0.18 | 0.18 | 39 | 1020.5 |
| 20260507021531 | 42 | 41 | 4.0 | 5.0 | 0.00 | 0.18 | 0.18 | 38 | 1020.3 |
| 20260507021017 | 43 | 37 | 4.0 | 6.0 | 0.00 | 0.18 | 0.18 | 37 | 1020.3 |
| 20260507020515 | 44 | 32 | 3.0 | 8.0 | 0.00 | 0.18 | 0.18 | 37 | 1020.3 |
| 20260507020034 | 45 | 29 | 4.0 | 8.0 | 0.00 | 0.18 | 0.18 | 35 | 1020.1 |
| 20260507015513 | 46 | 9 | 6.0 | 9.0 | 0.00 | 0.18 | 0.18 | 33 | 1020.0 |
| 20260507015014 | 46 | 12 | 6.0 | 9.0 | 0.00 | 0.18 | 0.18 | 33 | 1020.1 |
| 20260507014532 | 47 | 349 | 5.0 | 7.0 | 0.00 | 0.18 | 0.18 | 34 | 1020.1 |
| 20260507014014 | 47 | 341 | 2.0 | 8.0 | 0.00 | 0.18 | 0.18 | 34 | 1019.9 |
| 20260507013512 | 47 | 333 | 4.0 | 9.0 | 0.00 | 0.18 | 0.18 | 32 | 1019.9 |
| 20260507013036 | 48 | 325 | 5.0 | 10.0 | 0.00 | 0.18 | 0.18 | 31 | 1019.9 |
| 20260507012523 | 48 | 339 | 4.0 | 10.0 | 0.00 | 0.18 | 0.18 | 31 | 1019.8 |
| 20260507012013 | 48 | 17 | 7.0 | 13.0 | 0.00 | 0.18 | 0.18 | 31 | 1019.6 |
| 20260507011533 | 48 | 317 | 5.0 | 13.0 | 0.00 | 0.18 | 0.18 | 31 | 1019.6 |
| 20260507011014 | 49 | 325 | 6.0 | 12.0 | 0.00 | 0.18 | 0.18 | 31 | 1019.4 |
| 20260507010514 | 49 | 12 | 7.0 | 11.0 | 0.00 | 0.18 | 0.18 | 30 | 1019.3 |
| 20260507010038 | 49 | 3 | 6.0 | 13.0 | 0.00 | 0.18 | 0.18 | 31 | 1019.3 |
| 20260507005514 | 49 | 326 | 8.0 | 13.0 | 0.00 | 0.18 | 0.18 | 30 | 1019.2 |
| 20260507005013 | 49 | 337 | 6.0 | 10.0 | 0.00 | 0.18 | 0.18 | 29 | 1019.2 |
| 20260507004531 | 49 | 323 | 6.0 | 13.0 | 0.00 | 0.18 | 0.18 | 29 | 1019.1 |
| 20260507004014 | 49 | 325 | 5.0 | 13.0 | 0.00 | 0.18 | 0.18 | 29 | 1019.1 |
| 20260507003516 | 49 | 326 | 8.0 | 13.0 | 0.00 | 0.18 | 0.18 | 30 | 1019.1 |
| 20260507003031 | 49 | 320 | 7.0 | 16.0 | 0.00 | 0.18 | 0.18 | 30 | 1019.0 |
| 20260507002514 | 49 | 330 | 9.0 | 16.0 | 0.00 | 0.18 | 0.18 | 29 | 1018.7 |
| 20260507002015 | 49 | 314 | 11.0 | 16.0 | 0.00 | 0.18 | 0.18 | 31 | 1018.6 |
| 20260507001537 | 49 | 338 | 8.0 | 12.0 | 0.00 | 0.18 | 0.18 | 32 | 1018.6 |
| 20260507001013 | 49 | 302 | 4.0 | 10.0 | 0.00 | 0.18 | 0.18 | 33 | 1018.6 |
| 20260507000514 | 49 | 37 | 2.0 | 11.0 | 0.00 | 0.18 | 0.18 | 33 | 1018.5 |
| 20260507000032 | 49 | 307 | 7.0 | 14.0 | 0.00 | 0.18 | 0.18 | 33 | 1018.5 |
| 20260506235511 | 49 | 345 | 6.0 | 14.0 | 0.00 | 0.18 | 0.18 | 32 | 1018.5 |
| 20260506235014 | 49 | 342 | 5.0 | 14.0 | 0.00 | 0.18 | 0.18 | 32 | 1018.4 |
| 20260506234546 | 49 | 321 | 6.0 | 16.0 | 0.00 | 0.18 | 0.18 | 32 | 1018.5 |
| 20260506234014 | 49 | 314 | 12.0 | 16.0 | 0.00 | 0.18 | 0.18 | 31 | 1018.6 |
| 20260506233514 | 50 | 289 | 7.0 | 13.0 | 0.00 | 0.18 | 0.18 | 33 | 1018.5 |
| 20260506233033 | 49 | 290 | 7.0 | 14.0 | 0.00 | 0.18 | 0.18 | 34 | 1018.3 |
| 20260506232514 | 49 | 356 | 9.0 | 14.0 | 0.00 | 0.18 | 0.18 | 34 | 1018.2 |
| 20260506232012 | 49 | 333 | 5.0 | 12.0 | 0.00 | 0.18 | 0.18 | 35 | 1018.3 |
| 20260506231536 | 49 | 21 | 4.0 | 16.0 | 0.00 | 0.18 | 0.18 | 34 | 1018.2 |
| 20260506231012 | 49 | 316 | 9.0 | 16.0 | 0.00 | 0.18 | 0.18 | 33 | 1018.2 |
| 20260506230513 | 49 | 324 | 9.0 | 14.0 | 0.00 | 0.18 | 0.18 | 35 | 1018.0 |
| 20260506230030 | 49 | 17 | 7.0 | 17.0 | 0.00 | 0.18 | 0.18 | 35 | 1018.1 |
| 20260506225513 | 49 | 255 | 7.0 | 17.0 | 0.00 | 0.18 | 0.18 | 35 | 1018.0 |
| 20260506225013 | 49 | 333 | 8.0 | 13.0 | 0.00 | 0.18 | 0.18 | 35 | 1018.0 |
| 20260506224531 | 48 | 311 | 2.0 | 12.0 | 0.00 | 0.18 | 0.18 | 38 | 1017.9 |
| 20260506224013 | 48 | 316 | 6.0 | 14.0 | 0.00 | 0.18 | 0.18 | 35 | 1017.9 |
| 20260506223515 | 47 | 306 | 7.0 | 18.0 | 0.00 | 0.18 | 0.18 | 38 | 1018.0 |
| 20260506223031 | 48 | 325 | 8.0 | 18.0 | 0.00 | 0.18 | 0.18 | 35 | 1018.0 |
| 20260506222511 | 48 | 336 | 6.0 | 13.0 | 0.00 | 0.18 | 0.18 | 40 | 1017.9 |
| 20260506222018 | 49 | 345 | 7.0 | 17.0 | 0.00 | 0.18 | 0.18 | 39 | 1017.9 |
| 20260506221534 | 48 | 329 | 9.0 | 17.0 | 0.00 | 0.18 | 0.18 | 40 | 1017.9 |
| 20260506221015 | 48 | 19 | 9.0 | 17.0 | 0.00 | 0.18 | 0.18 | 38 | 1017.9 |
| 20260506220515 | 49 | 23 | 7.0 | 20.0 | 0.00 | 0.18 | 0.18 | 38 | 1017.8 |
| 20260506220043 | 48 | 305 | 9.0 | 20.0 | 0.00 | 0.18 | 0.18 | 40 | 1017.9 |
| 20260506215515 | 48 | 292 | 7.0 | 13.0 | 0.00 | 0.18 | 0.18 | 44 | 1017.9 |
| 20260506215015 | 47 | 340 | 10.0 | 17.0 | 0.00 | 0.18 | 0.18 | 41 | 1017.8 |
| 20260506214535 | 48 | 341 | 9.0 | 19.0 | 0.00 | 0.18 | 0.18 | 40 | 1017.9 |
| 20260506214014 | 47 | 338 | 14.0 | 19.0 | 0.00 | 0.18 | 0.18 | 40 | 1018.0 |
| 20260506213515 | 48 | 290 | 12.0 | 18.0 | 0.00 | 0.18 | 0.18 | 42 | 1017.7 |
| 20260506213030 | 47 | 290 | 7.0 | 19.0 | 0.00 | 0.18 | 0.18 | 45 | 1017.8 |
| 20260506212518 | 48 | 314 | 9.0 | 19.0 | 0.00 | 0.18 | 0.18 | 44 | 1017.7 |
| 20260506212016 | 47 | 281 | 8.0 | 17.0 | 0.00 | 0.18 | 0.18 | 49 | 1017.7 |
| 20260506211534 | 47 | 316 | 10.0 | 20.0 | 0.00 | 0.18 | 0.18 | 45 | 1017.7 |
| 20260506211014 | 47 | 281 | 12.0 | 20.0 | 0.00 | 0.18 | 0.18 | 47 | 1017.6 |
| 20260506210516 | 47 | 316 | 12.0 | 20.0 | 0.00 | 0.18 | 0.18 | 50 | 1017.6 |
| 20260506210032 | 47 | 328 | 5.0 | 15.0 | 0.00 | 0.18 | 0.18 | 48 | 1017.7 |
| 20260506205513 | 47 | 347 | 9.0 | 17.0 | 0.00 | 0.18 | 0.18 | 52 | 1017.7 |
| 20260506205014 | 46 | 292 | 11.0 | 17.0 | 0.00 | 0.18 | 0.18 | 52 | 1017.6 |
| 20260506204536 | 45 | 308 | 10.0 | 17.0 | 0.00 | 0.18 | 0.18 | 52 | 1017.7 |
| 20260506204015 | 44 | 292 | 9.0 | 17.0 | 0.00 | 0.18 | 0.18 | 54 | 1017.6 |
| 20260506203515 | 44 | 303 | 13.0 | 17.0 | 0.00 | 0.18 | 0.18 | 54 | 1017.5 |
| 20260506203034 | 44 | 293 | 6.0 | 13.0 | 0.00 | 0.18 | 0.18 | 54 | 1017.4 |
| 20260506202518 | 45 | 280 | 5.0 | 11.0 | 0.00 | 0.18 | 0.18 | 59 | 1017.5 |
| 20260506202015 | 45 | 297 | 5.0 | 13.0 | 0.00 | 0.18 | 0.18 | 57 | 1017.4 |
| 20260506201534 | 45 | 273 | 7.0 | 14.0 | 0.00 | 0.18 | 0.18 | 58 | 1017.5 |
| 20260506201014 | 44 | 295 | 8.0 | 14.0 | 0.00 | 0.18 | 0.18 | 66 | 1017.5 |
| 20260506200513 | 44 | 290 | 8.0 | 14.0 | 0.00 | 0.18 | 0.18 | 63 | 1017.4 |
| 20260506200035 | 44 | 285 | 8.0 | 14.0 | 0.00 | 0.18 | 0.18 | 67 | 1017.4 |
| 20260506195515 | 44 | 283 | 7.0 | 13.0 | 0.00 | 0.18 | 0.18 | 62 | 1017.4 |
| 20260506195015 | 44 | 295 | 4.0 | 8.0 | 0.00 | 0.18 | 0.18 | 62 | 1017.2 |
| 20260506194537 | 43 | 276 | 3.0 | 9.0 | 0.00 | 0.18 | 0.18 | 66 | 1017.2 |
| 20260506194018 | 43 | 208 | 4.0 | 9.0 | 0.00 | 0.18 | 0.18 | 70 | 1017.3 |
| 20260506193515 | 42 | 223 | 4.0 | 9.0 | 0.00 | 0.18 | 0.18 | 70 | 1017.3 |
| 20260506193032 | 40 | 209 | 3.0 | 9.0 | 0.00 | 0.18 | 0.18 | 69 | 1017.4 |
| 20260506192515 | 39 | 295 | 6.0 | 19.0 | 0.00 | 0.18 | 0.18 | 68 | 1017.4 |
| 20260506192014 | 39 | 276 | 8.0 | 22.0 | 0.00 | 0.18 | 0.18 | 70 | 1017.5 |
| 20260506191534 | 40 | 311 | 17.0 | 23.0 | 0.00 | 0.18 | 0.18 | 69 | 1017.5 |
| 20260506191016 | 41 | 284 | 15.0 | 23.0 | 0.00 | 0.18 | 0.18 | 64 | 1017.3 |
| 20260506190516 | 42 | 300 | 9.0 | 17.0 | 0.00 | 0.18 | 0.18 | 69 | 1017.1 |
| 20260506190033 | 42 | 304 | 11.0 | 17.0 | 0.00 | 0.18 | 0.18 | 63 | 1017.1 |
| 20260506185515 | 43 | 327 | 9.0 | 16.0 | 0.00 | 0.18 | 0.18 | 64 | 1017.0 |
| 20260506185015 | 42 | 332 | 6.0 | 11.0 | 0.00 | 0.18 | 0.18 | 72 | 1016.9 |
| 20260506184537 | 40 | 314 | 6.0 | 10.0 | 0.00 | 0.18 | 0.18 | 74 | 1016.9 |
| 20260506184015 | 40 | 291 | 4.0 | 16.0 | 0.00 | 0.18 | 0.18 | 76 | 1016.9 |
| 20260506183515 | 40 | 314 | 9.0 | 19.0 | 0.00 | 0.18 | 0.18 | 74 | 1017.0 |
| 20260506183030 | 42 | 330 | 12.0 | 19.0 | 0.00 | 0.18 | 0.18 | 72 | 1017.0 |
| 20260506182516 | 43 | 315 | 11.0 | 16.0 | 0.00 | 0.18 | 0.18 | 72 | 1016.8 |
| 20260506182019 | 43 | 16 | 8.0 | 14.0 | 0.00 | 0.18 | 0.18 | 72 | 1016.8 |
| 20260506181534 | 42 | 30 | 3.0 | 12.0 | 0.00 | 0.18 | 0.18 | 75 | 1016.8 |
| 20260506181015 | 42 | 340 | 6.0 | 11.0 | 0.00 | 0.18 | 0.18 | 73 | 1016.6 |
| 20260506180516 | 41 | 359 | 6.0 | 11.0 | 0.00 | 0.18 | 0.18 | 82 | 1016.7 |
| 20260506180034 | 40 | 312 | 7.0 | 14.0 | 0.00 | 0.18 | 0.18 | 83 | 1016.8 |
| 20260506175516 | 40 | 335 | 8.0 | 14.0 | 0.00 | 0.18 | 0.18 | 83 | 1016.7 |
| 20260506175017 | 40 | 330 | 6.0 | 9.0 | 0.01 | 0.18 | 0.18 | 84 | 1016.6 |
| 20260506174531 | 40 | 319 | 3.0 | 8.0 | 0.01 | 0.18 | 0.18 | 81 | 1016.5 |
| 20260506174013 | 41 | 270 | 4.0 | 8.0 | 0.01 | 0.18 | 0.18 | 83 | 1016.4 |
| 20260506173514 | 40 | 291 | 5.0 | 8.0 | 0.02 | 0.18 | 0.18 | 88 | 1016.5 |
| 20260506173038 | 39 | 287 | 3.0 | 8.0 | 0.03 | 0.18 | 0.18 | 87 | 1016.4 |
| 20260506172515 | 39 | 284 | 6.0 | 8.0 | 0.04 | 0.18 | 0.18 | 87 | 1016.5 |
| 20260506172016 | 39 | 294 | 5.0 | 9.0 | 0.05 | 0.18 | 0.18 | 88 | 1016.4 |
| 20260506171534 | 39 | 276 | 4.0 | 9.0 | 0.06 | 0.18 | 0.18 | 88 | 1016.4 |
| 20260506171014 | 38 | 283 | 2.0 | 6.0 | 0.07 | 0.18 | 0.18 | 90 | 1016.4 |
| 20260506170513 | 38 | 0 | 2.0 | 6.0 | 0.08 | 0.18 | 0.18 | 91 | 1016.1 |
| 20260506170036 | 38 | 205 | 2.0 | 6.0 | 0.08 | 0.18 | 0.18 | 92 | 1016.2 |
| 20260506165514 | 38 | 201 | 2.0 | 7.0 | 0.09 | 0.18 | 0.18 | 93 | 1016.0 |
| 20260506165014 | 38 | 218 | 3.0 | 7.0 | 0.08 | 0.17 | 0.17 | 93 | 1016.1 |
| 20260506164534 | 38 | 164 | 3.0 | 6.0 | 0.08 | 0.17 | 0.17 | 94 | 1015.9 |
| 20260506164013 | 37 | 196 | 3.0 | 6.0 | 0.08 | 0.17 | 0.17 | 95 | 1015.9 |
| 20260506163515 | 37 | 158 | 4.0 | 7.0 | 0.07 | 0.16 | 0.16 | 96 | 1015.8 |
| 20260506163032 | 36 | 173 | 4.0 | 7.0 | 0.06 | 0.15 | 0.15 | 96 | 1015.7 |
| 20260506162514 | 36 | 219 | 5.0 | 8.0 | 0.05 | 0.14 | 0.14 | 96 | 1015.7 |
| 20260506162014 | 35 | 179 | 5.0 | 8.0 | 0.04 | 0.13 | 0.13 | 96 | 1015.8 |
| 20260506161533 | 35 | 202 | 6.0 | 8.0 | 0.03 | 0.12 | 0.12 | 95 | 1015.7 |
| 20260506161013 | 34 | 175 | 6.0 | 7.0 | 0.03 | 0.11 | 0.11 | 95 | 1015.5 |
| 20260506160516 | 33 | 163 | 4.0 | 5.0 | 0.03 | 0.10 | 0.10 | 95 | 1015.4 |
| 20260506160039 | 33 | 186 | 3.0 | 4.0 | 0.03 | 0.10 | 0.10 | 95 | 1015.4 |
| 20260506155514 | 33 | 201 | 2.0 | 4.0 | 0.03 | 0.09 | 0.09 | 94 | 1015.4 |
| 20260506155013 | 32 | 0 | 0.0 | 4.0 | 0.04 | 0.09 | 0.09 | 94 | 1015.1 |
| 20260506154534 | 32 | 121 | 2.0 | 5.0 | 0.04 | 0.09 | 0.09 | 94 | 1014.5 |
| 20260506154014 | 32 | 291 | 1.0 | 6.0 | 0.05 | 0.09 | 0.09 | 94 | 1015.2 |
| 20260506153514 | 32 | 297 | 4.0 | 8.0 | 0.07 | 0.09 | 0.09 | 94 | 1015.2 |
| 20260506153031 | 32 | 293 | 5.0 | 11.0 | 0.08 | 0.09 | 0.09 | 93 | 1015.2 |
| 20260506152515 | 33 | 290 | 8.0 | 13.0 | 0.08 | 0.09 | 0.09 | 93 | 1015.3 |
| 20260506152015 | 33 | 293 | 8.0 | 16.0 | 0.08 | 0.09 | 0.09 | 93 | 1015.1 |
| 20260506151532 | 33 | 299 | 10.0 | 17.0 | 0.09 | 0.09 | 0.09 | 93 | 1015.0 |
| 20260506151013 | 33 | 298 | 12.0 | 17.0 | 0.08 | 0.08 | 0.08 | 93 | 1015.0 |
| 20260506150514 | 34 | 292 | 10.0 | 20.0 | 0.07 | 0.07 | 0.07 | 92 | 1014.8 |
| 20260506150032 | 34 | 295 | 11.0 | 20.0 | 0.07 | 0.07 | 0.07 | 91 | 1014.7 |
| 20260506145514 | 36 | 290 | 12.0 | 20.0 | 0.06 | 0.06 | 0.06 | 92 | 1014.6 |
| 20260506145014 | 36 | 285 | 11.0 | 16.0 | 0.05 | 0.05 | 0.05 | 92 | 1014.6 |
| 20260506144531 | 37 | 289 | 9.0 | 20.0 | 0.04 | 0.04 | 0.04 | 92 | 1014.5 |
| 20260506144018 | 37 | 290 | 12.0 | 20.0 | 0.03 | 0.03 | 0.03 | 90 | 1014.4 |
| 20260506143516 | 37 | 291 | 13.0 | 20.0 | 0.02 | 0.02 | 0.02 | 90 | 1014.3 |
| 20260506143035 | 38 | 283 | 14.0 | 20.0 | 0.01 | 0.01 | 0.01 | 89 | 1014.3 |
| 20260506142513 | 38 | 282 | 15.0 | 22.0 | 0.01 | 0.01 | 0.01 | 87 | 1014.1 |
| 20260506142016 | 39 | 296 | 15.0 | 22.0 | 0.01 | 0.01 | 0.01 | 83 | 1014.0 |
| 20260506141531 | 41 | 299 | 13.0 | 22.0 | 0.00 | 0.00 | 0.00 | 75 | 1013.5 |
| 20260506141016 | 41 | 278 | 5.0 | 9.0 | 0.00 | 0.00 | 0.00 | 74 | 1013.2 |
| 20260506140515 | 42 | 306 | 5.0 | 9.0 | 0.00 | 0.00 | 0.00 | 72 | 1013.0 |
| 20260506140035 | 42 | 349 | 4.0 | 7.0 | 0.00 | 0.00 | 0.00 | 71 | 1012.8 |
| 20260506135513 | 42 | 283 | 4.0 | 7.0 | 0.00 | 0.00 | 0.00 | 71 | 1012.7 |
| 20260506135018 | 41 | 18 | 2.0 | 4.0 | 0.00 | 0.00 | 0.00 | 73 | 1012.6 |
| 20260506134532 | 41 | 22 | 2.0 | 3.0 | 0.00 | 0.00 | 0.00 | 73 | 1012.6 |
| 20260506134014 | 41 | 0 | 0.0 | 1.0 | 0.00 | 0.00 | 0.00 | 73 | 1012.5 |
| 20260506133512 | 41 | 0 | 0.0 | 1.0 | 0.00 | 0.00 | 0.00 | 73 | 1012.4 |
| 20260506133031 | 41 | 0 | 0.0 | 1.0 | 0.00 | 0.00 | 0.00 | 73 | 1012.3 |
| 20260506132518 | 41 | 0 | 0.0 | 4.0 | 0.00 | 0.00 | 0.00 | 73 | 1012.4 |
| 20260506132018 | 41 | 0 | 1.0 | 4.0 | 0.00 | 0.00 | 0.00 | 73 | 1012.4 |
| 20260506131544 | 41 | 158 | 2.0 | 5.0 | 0.00 | 0.00 | 0.00 | 74 | 1012.2 |
| 20260506131014 | 40 | 141 | 2.0 | 5.0 | 0.00 | 0.00 | 0.00 | 74 | 1012.1 |
| 20260506130514 | 40 | 117 | 1.0 | 4.0 | 0.00 | 0.00 | 0.00 | 75 | 1012.2 |
| 20260506130038 | 40 | 111 | 1.0 | 4.0 | 0.00 | 0.00 | 0.00 | 76 | 1012.2 |
| 20260506125514 | 40 | 115 | 2.0 | 4.0 | 0.00 | 0.00 | 0.00 | 76 | 1012.0 |
| 20260506125015 | 40 | 104 | 2.0 | 3.0 | 0.00 | 0.00 | 0.00 | 77 | 1012.0 |
| 20260506124532 | 40 | 109 | 0.0 | 3.0 | 0.00 | 0.00 | 0.00 | 76 | 1012.1 |
| 20260506124013 | 40 | 103 | 0.0 | 5.0 | 0.00 | 0.00 | 0.00 | 74 | 1012.0 |
| 20260506123514 | 41 | 121 | 3.0 | 7.0 | 0.00 | 0.00 | 0.00 | 73 | 1011.9 |
| 20260506123031 | 41 | 160 | 2.0 | 7.0 | 0.00 | 0.00 | 0.00 | 72 | 1011.9 |
| 20260506122513 | 41 | 187 | 3.0 | 6.0 | 0.00 | 0.00 | 0.00 | 72 | 1011.9 |
| 20260506122012 | 41 | 162 | 2.0 | 7.0 | 0.00 | 0.00 | 0.00 | 72 | 1012.0 |
| 20260506121530 | 41 | 188 | 2.0 | 7.0 | 0.00 | 0.00 | 0.00 | 72 | 1011.9 |
| 20260506121018 | 40 | 147 | 3.0 | 7.0 | 0.00 | 0.00 | 0.00 | 74 | 1012.0 |
| 20260506120518 | 41 | 86 | 2.0 | 6.0 | 0.00 | 0.00 | 0.00 | 74 | 1011.9 |
| 20260506120034 | 41 | 144 | 0.0 | 1.0 | 0.00 | 0.00 | 0.00 | 72 | 1011.8 |
| 20260506115514 | 41 | 0 | 0.0 | 2.0 | 0.00 | 0.00 | 0.00 | 71 | 1011.9 |
| 20260506115015 | 41 | 0 | 0.0 | 2.0 | 0.00 | 0.00 | 0.00 | 70 | 1011.8 |
| 20260506114531 | 42 | 70 | 0.0 | 1.0 | 0.00 | 0.00 | 0.00 | 70 | 1011.9 |
| 20260506114015 | 42 | 0 | 0.0 | 1.0 | 0.00 | 0.00 | 0.00 | 69 | 1011.9 |
| 20260506113516 | 42 | 0 | 0.0 | 3.0 | 0.00 | 0.00 | 0.00 | 70 | 1011.9 |
| 20260506113032 | 42 | 0 | 1.0 | 3.0 | 0.00 | 0.00 | 0.00 | 70 | 1011.9 |
| 20260506112513 | 42 | 0 | 1.0 | 4.0 | 0.00 | 0.00 | 0.00 | 72 | 1011.9 |
| 20260506112015 | 41 | 164 | 0.0 | 4.0 | 0.00 | 0.00 | 0.00 | 71 | 1011.9 |
| 20260506111533 | 41 | 0 | 0.0 | 0.0 | 0.00 | 0.00 | 0.00 | 73 | 1011.7 |
| 20260506111014 | 41 | 0 | 0.0 | 0.0 | 0.00 | 0.00 | 0.00 | 74 | 1011.8 |
| 20260506110515 | 41 | 0 | 0.0 | 1.0 | 0.00 | 0.00 | 0.00 | 72 | 1012.0 |
| 20260506110030 | 41 | 0 | 0.0 | 3.0 | 0.00 | 0.00 | 0.00 | 73 | 1011.9 |
| 20260506105514 | 42 | 0 | 0.0 | 3.0 | 0.00 | 0.00 | 0.00 | 71 | 1011.7 |
| 20260506105016 | 42 | 149 | 1.0 | 4.0 | 0.00 | 0.00 | 0.00 | 70 | 1011.5 |
| 20260506104530 | 42 | 177 | 0.0 | 5.0 | 0.00 | 0.00 | 0.00 | 71 | 1011.5 |
| 20260506104014 | 41 | 195 | 3.0 | 10.0 | 0.00 | 0.00 | 0.00 | 71 | 1011.5 |
| 20260506103514 | 42 | 163 | 5.0 | 10.0 | 0.00 | 0.00 | 0.00 | 72 | 1011.3 |
| 20260506103038 | 42 | 176 | 7.0 | 12.0 | 0.00 | 0.00 | 0.00 | 70 | 1011.3 |
| 20260506102514 | 42 | 145 | 8.0 | 12.0 | 0.00 | 0.00 | 0.00 | 71 | 1011.3 |
| 20260506102014 | 42 | 162 | 6.0 | 13.0 | 0.00 | 0.00 | 0.00 | 70 | 1011.5 |
| 20260506101536 | 42 | 171 | 8.0 | 14.0 | 0.00 | 0.00 | 0.00 | 67 | 1011.3 |
| 20260506101013 | 42 | 155 | 10.0 | 14.0 | 0.00 | 0.00 | 0.00 | 67 | 1011.3 |
| 20260506100513 | 42 | 159 | 8.0 | 14.0 | 0.00 | 0.00 | 0.00 | 67 | 1011.3 |
| 20260506100037 | 43 | 198 | 8.0 | 14.0 | 0.00 | 0.00 | 0.00 | 66 | 1011.3 |
| 20260506095513 | 43 | 158 | 7.0 | 16.0 | 0.00 | 0.00 | 0.00 | 64 | 1011.3 |
| 20260506095013 | 43 | 174 | 10.0 | 16.0 | 0.00 | 0.00 | 0.00 | 64 | 1011.3 |
| 20260506094543 | 43 | 182 | 9.0 | 14.0 | 0.00 | 0.00 | 0.00 | 63 | 1011.2 |